Temperature
17 17 17 17 17 17 16 16 16 16 16 16 16 16 15 15 15 15 15 15 15 15 14 14 14 14 14 14 14 14 14 14 14 15 15 15 15 15 14 14 14 14 14
17 17 17 17 16 16 16 16 16 16 16 16 16 16 16 15 15 15 15 15 15 15 15 14 14 14 14 14 14 14 14 14 14 14 15 15 15 15 15 14 14 14 14
17 17 17 17 16 17 17 17 16 16 16 16 16 16 16 16 15 15 15 15 15 15 15 14 14 14 14 14 14 14 14 14 14 14 14 15 15 15 14 15 15 14 14
17 17 17 17 17 17 17 17 16 16 16 16 16 16 16 16 15 15 15 15 15 15 14 14 14 14 14 14 14 14 14 14 14 14 14 14 14 14 14 14 14 15 14
17 17 17 17 17 17 17 16 16 16 16 16 16 16 16 16 16 15 15 15 15 15 14 14 14 14 14 14 14 14 13 13 13 13 13 14 14 14 14 14 14 14 14
17 17 17 17 17 17 16 16 16 16 16 16 16 16 16 15 15 15 15 15 15 14 14 14 14 14 14 14 13 13 13 13 13 13 13 13 13 13 13 13 13 13 13
17 17 17 16 16 16 16 16 16 16 16 15 15 15 15 15 15 14 14 14 14 14 13 13 13 13 13 13 13 13 13 12 12 12 12 12 12 12 12 12 12 12 12
17 16 16 16 16 16 15 15 15 15 15 15 14 14 14 14 14 14 13 13 13 13 13 13 12 12 12 12 12 12 12 12 12 11 11 12 11 11 11 11 11 11 11
16 16 15 15 15 15 15 15 14 14 14 14 14 13 13 13 13 13 13 12 12 12 12 11 11 11 11 11 11 11 11 11 11 11 11 11 11 11 10 10 10 10 10
15 14 14 14 14 14 14 14 13 13 13 13 12 12 12 12 12 12 11 11 11 11 11 10 10 10 10 10 10 10 10 10 10 10 10 10 10 10 10 10 9 9 9
14 14 13 13 13 13 13 13 12 12 12 12 11 11 11 11 11 11 10 10 10 10 10 9 9 9 9 9 9 9 9 9 9 9 9 9 9 9 9 9 9 8 8
13 13 12 12 12 12 12 12 11 11 11 11 11 10 10 10 9 9 9 9 9 9 9 9 9 8 8 8 8 8 8 7 7 7 7 7 8 8 8 8 8 8 7
12 12 12 12 11 11 11 11 11 10 10 10 9 9 9 9 8 8 8 8 8 8 8 7 7 7 7 7 7 6 6 6 6 6 6 6 6 6 6 7 7 7 7
11 11 11 11 11 10 10 10 10 9 9 9 9 8 8 8 8 8 7 7 7 7 7 7 6 6 6 6 6 6 5 5 5 5 5 5 5 5 6 6 6 6 6
11 10 10 10 10 10 10 9 9 9 8 8 8 7 7 7 7 6 6 6 6 6 5 5 5 5 5 5 5 5 5 5 4 4 4 4 4 4 4 5 5 5 5
10 10 10 9 9 9 9 8 8 8 7 7 7 6 6 6 5 5 5 5 5 5 4 4 4 4 4 4 4 4 4 4 3 3 3 3 3 3 3 4 4 4 4
10 9 9 9 9 8 8 8 7 7 7 6 6 5 5 5 5 5 4 4 4 4 4 3 3 3 3 3 3 3 3 3 2 2 2 2 3 3 3 3 3 3 3
9 9 8 8 8 8 7 7 6 6 6 5 5 5 4 4 4 4 3 3 3 3 3 2 2 2 2 2 2 2 2 2 2 2 2 2 2 2 2 2 2 2 3
8 8 8 7 7 7 6 6 6 5 5 4 4 4 3 3 3 3 3 2 2 2 2 2 1 1 1 1 1 1 1 1 1 1 1 1 1 1 2 2 2 2 2
8 7 7 7 6 6 6 5 5 4 4 4 3 3 3 3 2 2 2 2 1 1 1 1 1 1 1 1 1 1 1 1 1 1 1 1 1 1 1 1 2 2 2
7 6 6 6 5 5 5 4 4 3 3 3 2 2 2 2 1 1 1 1 1 0 0 0 0 0 0 0 0 0 0 0 0 1 1 1 1 1 1 1 1 1 2
6 6 5 5 5 4 4 4 3 3 2 2 2 2 1 1 1 0 0 0 -0 -0 -0 -0 -0 -0 -0 -0 -0 -0 -0 0 0 0 0 1 1 1 1 1 1 1 1
5 5 5 4 4 4 3 3 2 2 2 2 1 1 1 0 0 -0 -0 -0 -0 -0 -0 -0 -0 -0 -1 -1 -1 -1 -1 -0 -0 -0 -0 0 0 1 1 1 1 1 1
5 4 4 4 3 3 2 2 2 2 1 1 1 0 0 -0 -0 -0 -0 -1 -1 -0 -0 -0 -0 -0 -0 -1 -1 -1 -1 -1 -0 -0 0 0 0 1 1 1 1 1 2
4 4 3 3 2 2 2 1 1 1 1 0 0 -0 -0 -0 -1 -1 -1 -1 -1 -1 -1 -1 -1 -1 -1 -1 -1 -1 -1 -0 -0 -0 0 0 1 1 1 1 1 2 2
3 3 2 2 2 1 1 1 1 0 0 -0 -0 -0 -1 -1 -1 -1 -1 -1 -1 -1 -1 -1 -1 -1 -1 -1 -1 -1 -1 -0 -0 0 0 0 1 1 1 1 1 1 2
Wind_Speed
9 8 8 8 8 7 7 7 7 6 7 7 7 7 7 7 7 7 6 6 6 5 5 5 5 4 3 3 3 3 3 3 4 4 3 3 3 4 5 6 8 10 11
9 8 8 7 7 7 7 6 6 7 7 7 7 7 7 8 8 8 8 8 8 8 7 7 7 5 5 5 4 5 4 5 5 6 4 3 5 5 5 5 7 9 10
8 8 8 7 7 7 7 5 5 6 5 6 6 7 7 7 8 8 9 8 9 9 8 8 8 7 7 6 6 6 5 6 6 6 6 4 4 4 4 5 6 7 10
8 9 8 7 7 6 5 5 5 5 5 5 6 7 7 7 7 8 8 8 8 8 8 9 8 8 9 8 7 8 7 6 6 6 7 6 6 5 4 5 7 5 6
9 8 7 6 5 5 4 4 4 4 4 4 4 4 4 4 5 7 7 8 7 7 7 7 8 8 9 8 7 7 7 6 6 7 7 7 7 5 6 5 7 8 8
7 6 5 5 5 4 3 3 3 3 2 3 3 2 2 1 3 5 6 5 5 5 6 5 5 5 6 7 8 8 7 7 8 7 8 9 10 8 7 7 7 8 8
6 6 6 6 5 4 4 4 3 3 3 3 3 3 2 2 2 1 1 1 1 1 2 1 1 1 1 2 4 4 4 6 7 7 9 10 9 7 7 9 8 9 11
8 7 6 6 6 5 5 4 4 3 4 3 4 4 4 5 5 5 5 4 4 3 3 2 2 3 4 3 3 3 4 4 4 4 6 8 8 7 7 8 10 10 11
9 8 7 7 7 7 6 5 5 5 6 6 5 6 6 6 8 7 6 4 4 4 4 5 4 3 5 5 3 4 5 5 5 7 8 11 13 14 11 7 7 8 10
9 8 8 8 8 8 7 6 6 7 7 8 8 8 8 7 9 9 6 4 3 3 3 3 4 3 5 5 3 3 6 7 7 9 8 9 9 11 11 8 8 9 9
9 10 10 9 9 8 8 7 7 8 8 8 8 7 7 8 9 10 9 5 3 2 2 3 3 6 6 6 4 4 6 8 7 7 8 8 7 6 7 7 7 8 10
10 11 10 8 8 8 9 8 7 8 8 7 7 6 5 6 7 8 9 7 4 2 2 3 4 7 7 7 5 6 9 7 5 5 6 7 7 7 8 8 10 11 11
12 11 9 9 9 8 8 8 7 6 6 5 4 4 4 4 5 8 8 8 7 3 3 5 6 7 7 6 7 8 7 5 4 5 6 7 7 8 9 8 10 10 12
11 9 8 8 8 8 7 6 6 5 5 4 4 3 2 3 4 5 5 5 6 5 4 6 7 7 6 6 7 6 5 5 5 6 7 8 8 8 8 8 9 9 10
9 8 7 7 7 7 7 6 5 4 3 4 2 2 2 3 4 6 5 5 5 4 4 3 4 5 7 7 7 7 7 7 6 7 7 8 9 9 9 9 8 9 10
8 7 6 5 6 6 7 7 11 8 9 8 6 4 3 3 5 8 8 8 8 7 4 4 5 6 7 8 8 9 8 8 8 9 9 9 9 10 10 10 9 10 11
8 6 5 5 5 5 5 5 5 6 9 10 9 8 7 8 9 9 9 9 9 7 5 5 6 7 7 8 8 8 9 10 9 9 10 10 10 10 10 11 11 11 12
7 7 6 4 4 4 4 4 4 4 4 4 6 8 10 10 10 10 9 7 6 7 5 6 7 7 8 8 9 9 9 10 9 10 10 10 10 11 11 11 11 12 12
6 5 5 5 5 5 4 4 4 4 4 3 4 5 8 7 7 8 7 5 5 6 7 7 7 8 8 9 9 9 10 10 11 10 10 11 11 11 12 12 12 14 13
5 8 7 5 5 5 4 4 4 4 3 3 4 4 5 5 5 6 6 5 5 6 7 7 8 8 8 9 9 9 10 10 11 10 11 11 11 11 13 14 13 13 12
5 6 7 6 4 4 4 4 3 3 3 3 3 4 5 4 4 5 6 6 6 7 7 8 8 8 9 9 9 10 11 10 10 11 11 11 12 12 12 12 13 13 13
5 4 4 4 4 3 3 3 3 3 3 3 3 4 6 4 4 5 5 6 7 7 7 8 8 8 8 9 10 10 11 11 11 11 12 12 12 12 12 12 13 13 13
5 5 5 4 4 4 4 3 3 3 3 3 3 3 4 4 5 6 6 7 7 8 9 8 8 8 10 11 11 9 10 11 11 13 13 13 12 12 12 13 15 16 14
5 5 5 4 4 4 3 3 3 3 3 3 3 3 4 4 5 6 7 7 8 9 10 10 10 12 15 14 13 13 13 15 17 14 14 13 13 13 12 13 14 15 14
5 5 5 4 3 3 3 3 3 3 3 3 3 4 4 5 6 7 7 8 9 10 12 12 11 13 16 17 16 17 20 21 19 16 14 11 13 14 13 14 13 14 14
5 5 4 3 3 3 3 3 3 3 3 3 4 4 5 5 6 7 7 8 9 10 11 12 14 17 18 16 18 22 22 21 20 19 15 10 11 12 13 12 15 13 14
Wind_Direction
176 177 175 176 178 175 184 194 195 197 195 197 199 198 201 203 198 197 206 198 203 212 210 210 221 210 210 206 195 192 194 188 227 262 248 262 267 271 276 267 263 260 263
174 172 176 172 173 180 193 198 195 202 204 204 200 202 208 208 203 205 214 211 212 219 221 218 228 219 219 217 209 211 212 208 221 257 264 254 250 257 264 268 268 263 259
166 171 175 177 181 187 194 194 192 200 204 201 197 207 214 213 210 213 216 217 218 223 223 222 229 221 229 227 223 225 226 222 219 240 262 256 260 258 268 273 270 267 266
167 172 182 187 186 187 189 186 192 196 199 204 207 213 218 216 216 218 218 222 225 229 230 230 232 227 233 234 233 234 233 233 230 240 259 264 263 259 252 268 279 269 270
169 175 182 177 172 174 177 184 188 193 205 203 203 210 215 215 223 219 219 224 226 233 237 237 239 236 237 236 239 239 233 239 244 249 261 269 270 262 260 258 273 284 280
160 167 159 151 150 154 156 156 153 152 152 149 167 169 173 229 255 225 217 229 232 236 243 244 244 247 253 247 246 241 230 238 248 252 261 265 272 270 269 266 274 282 286
137 135 137 137 133 135 136 127 124 117 108 105 102 105 90 28 16 35 152 177 223 251 253 260 276 348 332 295 287 281 269 261 250 254 263 268 276 280 280 277 268 266 269
110 108 114 121 121 118 114 108 100 99 98 93 81 84 76 48 57 76 84 85 72 57 52 57 60 32 19 3 343 338 325 313 294 272 264 273 278 283 276 274 277 277 272
102 102 102 106 105 99 97 94 93 92 84 78 74 72 71 49 46 61 79 81 72 54 47 50 56 42 15 18 18 345 325 314 309 305 295 288 289 288 284 281 275 274 278
99 96 92 94 98 96 93 88 84 88 85 79 70 64 66 58 48 56 71 77 69 46 33 36 42 22 2 6 360 330 312 308 314 314 308 304 298 292 286 266 264 270 275
92 88 84 85 89 91 86 82 85 85 81 76 71 59 54 50 45 47 53 61 55 37 12 354 350 351 352 350 336 302 293 301 305 303 303 303 302 295 290 279 263 260 268
86 83 79 78 84 88 87 82 82 87 83 75 72 58 44 38 39 37 39 43 40 37 355 337 330 338 342 340 334 319 316 315 308 308 308 305 305 304 301 295 284 272 262
84 79 77 75 73 76 85 87 83 81 86 83 78 67 38 23 21 24 26 25 24 21 348 339 341 345 344 343 336 332 333 331 323 316 310 306 302 299 301 302 299 292 284
86 80 77 79 75 68 69 75 84 85 90 89 82 70 40 19 12 8 7 7 7 4 352 347 350 354 353 338 336 339 338 327 316 310 307 304 305 304 302 304 304 306 301
90 89 85 83 87 79 70 61 72 69 98 111 104 97 59 23 356 356 4 360 353 344 342 352 359 352 349 345 340 336 333 331 325 318 311 309 307 304 302 303 297 297 293
94 87 86 86 85 89 88 72 51 61 64 71 78 77 50 27 6 15 16 14 11 8 16 359 348 343 338 334 330 328 327 325 322 317 312 308 306 304 302 300 296 293 292
99 97 91 92 95 96 94 94 77 47 49 51 48 47 43 29 27 24 23 24 23 22 16 354 344 337 333 329 325 322 320 320 318 314 311 309 306 304 303 300 297 294 292
91 91 92 92 95 97 96 92 90 82 55 30 25 29 30 30 29 25 20 21 16 14 2 348 339 333 330 328 325 322 319 318 316 315 312 309 306 304 301 298 296 294 294
92 91 90 89 88 89 88 85 79 73 60 37 20 16 15 16 23 21 20 21 3 353 347 339 333 330 328 326 324 321 318 314 312 312 309 307 306 304 301 299 297 293 291
88 100 99 94 88 84 80 80 75 67 55 40 27 11 2 11 16 8 9 2 353 344 338 333 330 327 326 323 322 320 318 316 313 311 309 307 305 302 299 298 297 296 294
93 95 97 93 90 88 85 81 76 68 52 39 22 7 5 11 5 356 353 350 344 338 333 329 326 326 325 323 320 318 317 314 313 312 311 308 305 303 299 296 294 294 293
102 102 99 100 94 85 80 75 69 59 48 35 15 8 11 15 2 352 345 340 335 330 327 324 323 324 323 322 321 320 317 315 314 313 309 305 303 300 299 297 296 295 293
101 98 88 82 82 81 76 68 62 54 41 23 11 8 9 5 356 349 342 338 335 333 333 331 326 324 327 325 322 318 315 315 314 310 307 303 301 299 296 294 294 295 294
99 98 94 87 81 78 71 59 48 39 32 22 16 11 3 356 350 346 343 339 337 335 335 333 328 326 328 328 324 320 318 317 315 308 302 297 296 295 294 294 294 295 295
97 95 92 89 87 81 69 55 44 37 31 26 20 9 360 355 350 346 343 340 337 335 334 333 331 330 328 327 326 325 322 318 314 312 306 297 294 295 297 297 298 300 299
91 88 86 84 81 77 71 59 47 40 33 24 16 8 0 354 348 344 342 340 338 335 333 331 331 331 329 329 328 326 323 321 319 317 312 302 300 300 304 303 304 303 303
Height
1514 1518 1521 1525 1529 1532 1535 1539 1542 1544 1546 1548 1549 1550 1551 1552 1553 1553 1554 1554 1555 1555 1556 1556 1557 1557 1558 1558 1558 1559 1559 1559 1558 1558 1559 1559 1559 1560 1560 1560 1559 1559 1559
1513 1517 1520 1523 1527 1530 1533 1536 1539 1541 1543 1545 1547 1548 1549 1549 1550 1551 1551 1552 1552 1552 1553 1553 1554 1554 1554 1555 1555 1555 1555 1555 1555 1554 1554 1555 1555 1555 1555 1555 1555 1554 1554
1512 1515 1518 1521 1525 1528 1531 1534 1536 1539 1540 1542 1543 1544 1545 1546 1547 1547 1548 1548 1548 1549 1549 1549 1550 1550 1550 1551 1551 1551 1551 1551 1551 1550 1549 1550 1550 1550 1550 1549 1549 1548 1548
1510 1514 1516 1520 1523 1526 1529 1531 1533 1535 1537 1538 1540 1541 1542 1542 1543 1543 1543 1544 1544 1544 1545 1545 1545 1546 1546 1546 1546 1546 1547 1547 1546 1545 1544 1544 1544 1544 1544 1543 1542 1542 1541
1508 1512 1515 1518 1521 1524 1526 1528 1530 1532 1533 1535 1536 1537 1538 1538 1539 1539 1539 1539 1540 1540 1540 1540 1541 1541 1541 1542 1542 1542 1542 1541 1541 1540 1539 1538 1538 1538 1537 1536 1535 1534 1533
1507 1510 1513 1516 1519 1521 1523 1526 1527 1528 1530 1531 1531 1532 1533 1533 1534 1534 1534 1534 1535 1535 1535 1535 1535 1535 1536 1536 1536 1536 1536 1536 1535 1534 1533 1532 1531 1531 1530 1529 1528 1526 1524
1504 1508 1511 1514 1516 1519 1521 1522 1524 1525 1526 1527 1527 1528 1528 1529 1529 1529 1529 1529 1529 1529 1529 1529 1529 1529 1530 1530 1530 1530 1529 1529 1529 1528 1527 1525 1525 1524 1523 1521 1520 1518 1516
1502 1506 1509 1511 1514 1516 1518 1519 1521 1522 1523 1523 1523 1524 1524 1524 1524 1524 1524 1524 1524 1524 1524 1524 1524 1524 1524 1523 1523 1523 1523 1523 1522 1521 1520 1519 1518 1517 1516 1514 1512 1509 1507
1501 1504 1507 1510 1512 1514 1516 1517 1518 1519 1519 1520 1520 1521 1521 1521 1521 1521 1521 1520 1520 1520 1519 1519 1519 1519 1518 1518 1517 1516 1516 1516 1516 1514 1513 1512 1510 1510 1508 1506 1504 1501 1498
1501 1504 1507 1509 1512 1513 1514 1515 1516 1517 1517 1518 1518 1519 1518 1518 1518 1518 1518 1518 1517 1517 1516 1516 1515 1514 1513 1512 1510 1510 1509 1508 1508 1506 1505 1504 1502 1501 1500 1498 1495 1493 1489
1503 1505 1507 1510 1512 1513 1514 1515 1516 1516 1517 1518 1518 1518 1518 1517 1517 1517 1516 1515 1515 1514 1513 1512 1511 1510 1509 1507 1505 1504 1502 1501 1499 1497 1496 1495 1493 1492 1491 1489 1487 1485 1482
1505 1507 1509 1511 1512 1514 1515 1516 1516 1517 1517 1517 1518 1518 1517 1517 1516 1515 1514 1513 1512 1512 1510 1509 1508 1506 1504 1502 1501 1499 1497 1495 1493 1491 1489 1487 1485 1483 1482 1480 1479 1477 1474
1507 1509 1511 1513 1514 1515 1516 1516 1516 1517 1517 1517 1517 1517 1517 1516 1515 1514 1513 1511 1510 1509 1507 1506 1504 1502 1500 1498 1496 1494 1492 1490 1487 1485 1482 1480 1479 1476 1474 1472 1470 1468 1465
1509 1511 1513 1514 1515 1516 1517 1517 1517 1517 1517 1517 1517 1516 1516 1515 1514 1512 1511 1509 1508 1506 1504 1502 1500 1498 1496 1494 1492 1489 1487 1485 1482 1479 1477 1474 1472 1470 1468 1465 1462 1460 1456
1512 1514 1515 1516 1517 1517 1518 1518 1518 1518 1518 1517 1516 1515 1514 1513 1512 1510 1508 1506 1504 1503 1501 1499 1496 1494 1491 1489 1487 1485 1482 1480 1477 1474 1471 1468 1466 1463 1461 1459 1456 1452 1449
1514 1515 1517 1517 1518 1518 1518 1518 1518 1518 1517 1516 1515 1514 1513 1512 1510 1508 1506 1504 1502 1500 1498 1495 1492 1490 1487 1484 1482 1479 1477 1474 1471 1468 1465 1462 1460 1457 1454 1451 1449 1445 1442
1516 1517 1517 1518 1518 1518 1518 1518 1517 1517 1517 1515 1514 1513 1512 1510 1508 1506 1504 1502 1499 1497 1494 1491 1489 1486 1483 1480 1477 1474 1471 1468 1465 1463 1460 1457 1454 1450 1447 1444 1441 1438 1434
1517 1517 1518 1518 1518 1518 1518 1517 1517 1516 1515 1514 1513 1511 1510 1508 1506 1504 1502 1499 1497 1494 1491 1488 1485 1482 1479 1476 1473 1469 1466 1463 1460 1457 1454 1451 1448 1444 1441 1437 1434 1431 1427
1517 1517 1517 1518 1518 1517 1517 1516 1516 1515 1514 1513 1512 1510 1509 1507 1504 1502 1499 1497 1494 1491 1488 1485 1482 1478 1475 1472 1468 1465 1462 1458 1455 1451 1448 1445 1442 1438 1434 1431 1427 1423 1420
1517 1517 1517 1517 1517 1517 1516 1515 1515 1514 1513 1511 1510 1509 1507 1505 1502 1500 1497 1494 1491 1488 1485 1482 1478 1475 1472 1468 1464 1461 1457 1453 1450 1446 1443 1439 1436 1432 1428 1424 1420 1416 1412
1517 1517 1517 1517 1517 1516 1515 1514 1513 1513 1512 1510 1509 1508 1506 1503 1501 1498 1495 1492 1489 1486 1482 1479 1475 1472 1468 1464 1460 1456 1453 1449 1445 1441 1437 1433 1429 1425 1421 1417 1413 1409 1405
1517 1517 1517 1516 1516 1515 1514 1514 1513 1512 1511 1510 1508 1507 1504 1502 1499 1497 1494 1491 1487 1484 1480 1476 1472 1469 1465 1461 1457 1452 1448 1444 1440 1435 1431 1427 1423 1419 1415 1410 1406 1403 1399
1517 1516 1516 1515 1515 1514 1514 1513 1512 1511 1510 1509 1507 1505 1503 1501 1498 1495 1492 1489 1485 1481 1478 1474 1470 1466 1462 1457 1453 1449 1444 1439 1435 1430 1425 1421 1417 1412 1408 1404 1400 1396 1392
1516 1516 1515 1515 1515 1514 1514 1513 1512 1511 1509 1508 1506 1504 1502 1499 1496 1493 1490 1486 1483 1479 1475 1471 1466 1462 1458 1454 1449 1445 1440 1436 1431 1426 1421 1416 1412 1407 1403 1399 1394 1390 1386
1516 1515 1515 1515 1514 1514 1513 1512 1511 1510 1509 1507 1505 1503 1501 1498 1495 1492 1488 1484 1480 1476 1472 1468 1464 1459 1455 1450 1446 1441 1437 1432 1427 1422 1417 1412 1407 1402 1398 1394 1389 1385 1381
1516 1515 1515 1515 1514 1514 1513 1512 1511 1510 1508 1506 1504 1502 1499 1496 1493 1490 1486 1482 1478 1474 1470 1465 1461 1457 1452 1447 1443 1438 1433 1428 1423 1418 1413 1408 1403 1398 1394 1389 1385 1380 1376